Location: Hackberry
(29.5783°N, 96.8797°W)
Time: 00:14:07
(UTC+00:00)

deb Explorer IX - All Passes

Search period start: 05 November 2024 00:00
Search period end: 15 November 2024 00:00
Orbit: 495 x 789 km, 38.7° (Epoch: 04 November)

Date Brightness Start Highest point End Pass type
(mag) Time Alt. Az. Time Alt. Az. Time Alt. Az.
05 Nov - 01:12:24 10° SSE 01:14:40 13° SE 01:16:58 10° ESE visible
05 Nov - 02:51:43 10° SW 02:57:05 60° SSE 03:02:34 10° ENE visible
05 Nov - 04:34:57 10° W 04:40:18 47° NNW 04:45:37 10° NE night (unlit)
05 Nov - 06:19:15 10° WNW 06:24:09 31° N 06:28:51 10° ENE night (unlit)
05 Nov - 08:02:52 10° NW 08:08:00 42° NNE 08:12:46 10° E night (unlit)
05 Nov - 09:46:02 10° WNW 09:51:11 65° SSW 09:55:51 10° SE visible
05 Nov - 11:31:45 10° WSW 11:33:22 12° SW 11:34:57 10° SSW visible
06 Nov - 01:33:30 10° SSW 01:37:58 28° SE 01:42:36 10° E visible
06 Nov - 03:15:15 10° WSW 03:20:42 77° NNW 03:26:18 10° ENE visible
06 Nov - 04:59:11 10° WNW 05:04:16 35° N 05:09:16 10° NE night (unlit)
06 Nov - 06:43:14 10° WNW 06:48:11 33° N 06:52:56 10° ENE night (unlit)
06 Nov - 08:26:25 10° WNW 08:31:47 66° NNE 08:36:44 10° ESE night (unlit)
06 Nov - 10:10:01 10° W 10:14:29 30° SW 10:18:38 10° SSE visible
07 Nov - 00:17:24 10° SSE 00:18:46 11° SE 00:20:09 10° ESE visible
07 Nov - 01:55:51 10° SW 02:01:02 56° SSE 02:06:26 10° ENE visible
07 Nov - 03:38:52 10° W 03:44:09 48° NNW 03:49:31 10° NE night (unlit)
07 Nov - 05:23:02 10° WNW 05:27:56 31° N 05:32:45 10° ENE night (unlit)
07 Nov - 07:06:35 10° NW 07:11:47 41° NNE 07:16:43 10° E night (unlit)
07 Nov - 08:49:40 10° WNW 08:54:59 70° SSW 08:59:54 10° SE night (unlit)
07 Nov - 10:34:47 10° WSW 10:37:14 14° SW 10:39:37 10° SSW visible
08 Nov - 00:37:10 10° SSW 00:41:18 25° SE 00:45:39 10° E visible
08 Nov - 02:18:36 10° WSW 02:23:54 81° NNW 02:29:27 10° ENE visible
08 Nov - 04:02:21 10° WNW 04:07:22 36° N 04:12:26 10° NE night (unlit)
08 Nov - 05:46:18 10° WNW 05:51:15 32° N 05:56:05 10° ENE night (unlit)
08 Nov - 07:29:24 10° WNW 07:34:51 63° NNE 07:39:58 10° ESE night (unlit)
08 Nov - 09:12:50 10° WNW 09:17:36 34° SW 09:22:03 10° SSE night (unlit)
09 Nov - 00:58:41 10° SW 01:03:36 51° SE 01:08:51 10° ENE visible
09 Nov - 02:41:26 10° W 02:46:36 50° NNW 02:51:58 10° NE visible
09 Nov - 04:25:27 10° WNW 04:30:19 31° N 04:35:11 10° ENE night (unlit)
09 Nov - 06:08:56 10° NW 06:14:07 40° NNE 06:19:10 10° E night (unlit)
09 Nov - 07:51:54 10° WNW 07:57:22 76° SSW 08:02:29 10° SE night (unlit)
09 Nov - 09:36:32 10° W 09:39:41 16° SW 09:42:42 10° S night (unlit)
09 Nov - 23:39:35 10° S 23:43:17 21° SE 23:47:12 10° E daylight
10 Nov - 01:20:37 10° WSW 01:25:43 86° NNW 01:31:11 10° ENE visible
10 Nov - 03:04:10 10° WNW 03:09:04 36° NNW 03:14:09 10° NE visible
10 Nov - 04:48:00 10° WNW 04:52:54 32° N 04:57:47 10° ENE night (unlit)
10 Nov - 06:31:02 10° WNW 06:36:29 59° NNE 06:41:44 10° ESE night (unlit)
10 Nov - 08:14:17 10° WNW 08:19:18 39° SW 08:24:02 10° SSE night (unlit)
11 Nov - 00:00:12 10° SW 00:04:50 44° SE 00:09:49 10° ENE visible
11 Nov - 01:42:40 10° W 01:47:40 52° NNW 01:52:58 10° ENE visible
11 Nov - 03:26:32 10° WNW 03:31:17 31° N 03:36:08 10° ENE visible
11 Nov - 05:09:56 10° NW 05:15:03 39° NNE 05:20:08 10° E night (unlit)
11 Nov - 06:52:47 10° WNW 06:58:18 83° SSW 07:03:36 10° ESE night (unlit)
11 Nov - 08:36:59 10° W 08:40:41 19° SW 08:44:15 10° S night (unlit)
11 Nov - 22:40:47 10° S 22:43:56 18° SE 22:47:15 10° E daylight
12 Nov - 00:21:19 10° WSW 00:26:12 86° SSE 00:31:29 10° ENE visible
12 Nov - 02:04:37 10° W 02:09:24 37° NNW 02:14:25 10° NE visible
12 Nov - 03:48:22 10° WNW 03:53:08 31° N 03:57:59 10° ENE night (unlit)
12 Nov - 05:31:19 10° WNW 05:36:42 55° NNE 05:42:00 10° E night (unlit)
12 Nov - 07:14:22 10° WNW 07:19:33 44° SW 07:24:32 10° SE night (unlit)
12 Nov - 23:00:26 10° SSW 23:04:43 37° SE 23:09:22 10° ENE daylight
13 Nov - 00:42:33 10° W 00:47:22 56° NNW 00:52:34 10° ENE visible
13 Nov - 02:26:16 10° WNW 02:30:51 31° N 02:35:38 10° ENE visible
13 Nov - 04:09:35 10° NW 04:14:34 37° NNE 04:19:36 10° E night (unlit)
13 Nov - 05:52:19 10° WNW 05:57:49 88° NNE 06:03:13 10° ESE night (unlit)
13 Nov - 07:36:08 10° W 07:40:16 22° SW 07:44:18 10° S night (unlit)
13 Nov - 21:40:52 10° S 21:43:14 14° SE 21:45:42 10° ESE daylight
13 Nov - 23:20:41 10° SW 23:25:18 76° SSE 23:30:23 10° ENE daylight
14 Nov - 01:03:45 10° W 01:08:21 38° NNW 01:13:16 10° NE visible
14 Nov - 02:47:24 10° WNW 02:51:58 30° N 02:56:44 10° ENE visible
14 Nov - 04:30:16 10° NW 04:35:30 50° NNE 04:40:48 10° E night (unlit)
14 Nov - 06:13:06 10° WNW 06:18:24 51° SSW 06:23:35 10° SE night (unlit)
14 Nov - 21:59:22 10° SSW 22:03:16 31° SE 22:07:29 10° E daylight
14 Nov - 23:41:08 10° WSW 23:45:43 61° NNW 23:50:46 10° ENE daylight
